TimeCET,TemperatureF,Dew PointF,Humidity,Sea Level PressureIn,VisibilityMPH,Wind Direction,Wind SpeedMPH,Gust SpeedMPH,PrecipitationIn,Events,Conditions,WindDirDegrees,DateUTC
6:00 AM,59.0,57.2,94,30.01,6.2,Calm,Calm,-,N/A,,Scattered Clouds,0,2012-11-16 05:00:00
7:00 AM,59,57,91,30.02,7,Calm,Calm,,,,Mostly Cloudy,,2012-11-16 06:00:00
7:00 AM,59.0,57.2,94,30.01,6.2,Calm,Calm,-,N/A,,Mostly Cloudy,0,2012-11-16 06:00:00
7:30 AM,60.8,59.0,94,30.04,6.2,Variable,1.2,-,N/A,,Scattered Clouds,0,2012-11-16 06:30:00
8:00 AM,60.8,59.0,94,30.04,6.2,ESE,3.5,-,N/A,,Mostly Cloudy,110,2012-11-16 07:00:00
8:30 AM,62.6,59.0,88,30.04,6.2,SE,3.5,-,N/A,,Mostly Cloudy,130,2012-11-16 07:30:00
9:00 AM,62.6,59.0,88,30.04,6.2,ESE,3.5,-,N/A,,Mostly Cloudy,110,2012-11-16 08:00:00
9:30 AM,62.6,59.0,88,30.04,6.2,ESE,3.5,-,N/A,,Mostly Cloudy,110,2012-11-16 08:30:00
10:00 AM,62.6,59.0,88,30.04,6.2,ESE,4.6,-,N/A,,Overcast,120,2012-11-16 09:00:00
10:30 AM,64.4,59.0,83,30.04,6.2,Variable,2.3,-,N/A,,Scattered Clouds,0,2012-11-16 09:30:00
11:00 AM,64.4,59.0,83,30.04,6.2,Variable,2.3,-,N/A,,Scattered Clouds,0,2012-11-16 10:00:00
11:30 AM,64.4,59.0,83,30.04,6.2,ENE,3.5,-,N/A,,Scattered Clouds,70,2012-11-16 10:30:00
11:40 AM,64.4,59.0,83,30.04,6.2,East,4.6,-,N/A,,Mostly Cloudy,100,2012-11-16 10:40:00
12:00 PM,64.4,57.2,77,30.01,6.2,Variable,2.3,-,N/A,,Mostly Cloudy,0,2012-11-16 11:00:00
12:30 PM,66.2,57.2,73,30.01,6.2,ESE,4.6,-,N/A,,Mostly Cloudy,120,2012-11-16 11:30:00
1:00 PM,65,57,68,29.99,7,East,6.9,,,,Mostly Cloudy,90,2012-11-16 12:00:00
1:00 PM,66.2,59.0,78,29.98,6.2,East,6.9,-,N/A,,Mostly Cloudy,90,2012-11-16 12:00:00
1:30 PM,64.4,59.0,83,29.98,6.2,East,6.9,-,N/A,,Mostly Cloudy,90,2012-11-16 12:30:00
2:00 PM,66.2,57.2,73,29.98,6.2,East,5.8,-,N/A,,Mostly Cloudy,90,2012-11-16 13:00:00
2:30 PM,66.2,57.2,73,29.95,6.2,ESE,5.8,-,N/A,,Mostly Cloudy,110,2012-11-16 13:30:00
3:00 PM,64.4,57.2,77,29.95,6.2,ENE,5.8,-,N/A,,Mostly Cloudy,70,2012-11-16 14:00:00
3:30 PM,64.4,57.2,77,29.95,6.2,East,8.1,-,N/A,,Mostly Cloudy,90,2012-11-16 14:30:00
4:00 PM,64.4,57.2,77,29.92,6.2,East,8.1,-,N/A,,Mostly Cloudy,80,2012-11-16 15:00:00
4:30 PM,64.4,57.2,77,29.92,6.2,ENE,8.1,-,N/A,,Mostly Cloudy,70,2012-11-16 15:30:00
5:00 PM,64.4,57.2,77,29.92,6.2,East,6.9,-,N/A,,Scattered Clouds,80,2012-11-16 16:00:00
5:30 PM,62.6,57.2,82,29.92,6.2,ESE,4.6,-,N/A,,Partly Cloudy,110,2012-11-16 16:30:00
6:00 PM,62.6,57.2,82,29.92,6.2,ESE,4.6,-,N/A,,Partly Cloudy,110,2012-11-16 17:00:00
6:30 PM,62.6,57.2,82,29.92,6.2,ESE,3.5,-,N/A,,Partly Cloudy,110,2012-11-16 17:30:00
7:00 PM,63,58,77,29.96,9,ESE,4.6,,,,Scattered Clouds,110,2012-11-16 18:00:00
7:00 PM,62.6,59.0,88,29.95,6.2,ESE,4.6,-,N/A,,Partly Cloudy,110,2012-11-16 18:00:00
7:30 PM,62.6,59.0,88,29.95,6.2,SE,2.3,-,N/A,,Partly Cloudy,130,2012-11-16 18:30:00